FENGYUN 1C DEB, 43214

Orbit data source: Space-Track

FENGYUN 1C DEB, 43214 is space debris in SSO originally from a launch on Mon, 10 May 1999 UTC launched from the Taiyaun Space Center, China (TSC). Fengyun 1C debris stems from the Chinese weather satellite Fengyun-1C, which was intentionally destroyed by a Chinese anti-satellite missile in 2007. This event dramatically increased the amount of space debris, with thousands of trackable fragments posing hazards to satellites and human spaceflight. The Fengyun 1C debris cloud has become a focal point in discussions about space sustainability and the need for international regulations to prevent the creation of new debris.

Loading next visibility...
Identifier
43214, 1999-025EYN
Orbit
SSO
Country
Flag of CNCN / PRC
Related business
Manufacturer
Unknown
Mission
Spacecraft
Bus & Motor
Unknown
Mass
Unknown
Launch date (UTC)
1999-05-10 (26 years ago)
Launch vehicle
Unknown
Launch site
Taiyaun Space Center, China (TSC)
Object type
Payload
Rocket body
Debris
Shape & HBR
Unknown
Radar Cross Section
Small (<0.1 m²)

Expand to show TLE details & history
Last TLE update: 21 hours ago

TLE from 21 hours ago
0 FENGYUN 1C DEB
1 43214U 99025EYN 25260.69700366  .00002761  00000-0  12176-2 0  9996
2 43214  98.7426 325.9651 0057288 117.7438 242.9566 14.23285322391799
Epoch: 2025-09-17T16:43Z
TLE epoch observation values (Epoch: 2025-09-17T16:43:41.116Z)
Latitude
-0.00003°
Longitude
78.17455°
Altitude
836.106 km
Speed
7.425 km/s
True Right ascension
21h 43m 51s
True Declination
0° 00' 00"
Sunlit
Object was in full shadow at epoch
Visualization orbit readout
Latitude
Unknown
Longitude
Unknown
Altitude
Unknown
Speed
Unknown
Apparent Right ascension
Unknown
Apparent Declination
Unknown
Sunlit
N/A
Visualization observer readout
Local Sidereal Time
06:32:28
Azimuth
Unknown
Elevation
Unknown
Doppler factor
Unknown
Orbital elements
Apogee altitude
852.607 km
Perigee altitude
770.232 km
Semi-major axis
7,189.556 km
Eccentricity
0.00573
Inclination
98.7426°
RAAN
325.9651°
Arg. of periapsis
117.7438°
True anomaly
242.37381°
Mean anomaly
242.9566°
Eccentric anomaly
242.66502°
Mean motion
3.56033 °/min
Orbital period
101.11 mins
BSTAR
0.0012176
Loading maneuver chart data...
Computing Atmospheric mass density...
Loading historical data...
Loading historical data...
Loading historical data...
Loading historical data...
Loading historical data...
Loading historical data...
Loading historical data...

Documentation

Showing up to 5 results
|